sat.trackr.live / text

‹ back to catalog

UNKNOWN

NORAD 87650

UNKNOWN UNKNOWN UNKNOWN

§ Identity

Operator
Country
Launch date
Launch site
Launch vehicle
Mass (kg)
RCS (m²)

External: N2YO · Heavens-Above

§ Orbital elements

Epoch: 2026-09-05T21:24:35.079552Z

Period
98.16 min
Inclination
100.2540°
Eccentricity
0.0026860
Mean motion
14.66999817 rev/d
Perigee alt
651.7 km
Apogee alt
689.6 km
Semi-major
7,048.8 km
B*
7.3548e-4
RAAN
134.7407°
Arg perigee
213.8061°
Mean anomaly
146.1424°
Rev number
11,887

§ Raw data

UNKNOWN1 87650U          26248.89207268  .00004073  00000+0  73548-3 0  99932 87650 100.2540 134.7407 0026860 213.8061 146.1424 14.66999817118876

JSON: /api/v1/satellites/87650 · /tle

For live sub-satellite position, see the globe view (requires WebGL).

§ Visibility from observer

Set your observer location to see the next 7 days of passes ≥ 10°. The values pass through the URL so the page stays shareable.

No JS? Fill the form by hand. The geolocation button needs JavaScript.